Location: Lafig�re
(44.4503°N, 4.0357°E)
Time: 16:15:05
(UTC+00:00)

Vanguard 2 Rocket - Pass Details

Date: 19 June 2021
Orbit: 555 x 3325 km, 32.9° (Epoch: 28 July)

Event Time Altitude Azimuth Distance (km) Brightness Sun altitude
Rises 22:03:46 0° 264° (W) 7,147 11.7 -18.2°
Reaches altitude 10° 22:09:09 10° 260° (W) 5,894 11.2 -18.6°
Maximum altitude 22:24:57 48° 194° (SSW) 2,685 8.9 -19.7°
Enters shadow 22:31:53 23° 133° (SE) 3,097 9.1 -20.1°
